Domov               UVHVVR             MKGP            O straneh              
ZDRAVSTVENO VARSTVO RASTLIN
  MREŽA AGROMET. POSTAJ
 ► PROGNOSTIČNA OBVESTILA
AGROMETEOROLOŠKI PODATKI -
ARSO
OBVLADOVANJE TVEGANJ ZARADI
NEUGODNIH VREMENSKIH RAZMER
  ► NARAVNE NESREČE
  ► SUŠA/MOČA
  ► NAMAKANJE
  ► ŽLED (gozdarstvo)
KARTOGRAFSKI PRIKAZI
SPLETNE POVEZAVE
PROJEKTI IN PUBLIKACIJE

AGROMETEOROLOŠKA MREŽA: VREMENSKE POSTAJE IN FENOLOŠKA OPAZOVANJA

Pregled podatkov za lokacijo Godemarci, meteorološka postaja 37828

Pregled senzorjev na lokaciji

ID Ime Zadnja
vrednost
Datum
zadnje
spremembe
Tip
senzorja
3800 Temperatura 2 m ( °C) 8,01 °C 23.10.2017 10:30 50YA
3801 Relativna vlaga 2 m (% RH) 99,93 % RH 23.10.2017 10:30 50YA
3802 Padavine 0.2 mm (mm) 0 mm 23.10.2017 10:30 Rain-O-Matic

Pregled podatkov zadnjih 24 ur

Zap.
št.
Datum in čas Godemarci
Padavine
0.2
mm
Relativna
vlaga
2
m
Temperatura
2
m
0 23.10.2017 09:30 0 99,93 8,01
1 23.10.2017 09:00 0 99,93 7,64
2 23.10.2017 08:30 0 99,93 7,23
3 23.10.2017 08:00 0 99,93 6,96
4 23.10.2017 07:30 0 99,93 6,79
5 23.10.2017 07:00 0 99,93 6,74
6 23.10.2017 06:30 0 99,93 6,69
7 23.10.2017 06:00 0 99,93 6,67
8 23.10.2017 05:30 0 99,93 6,74
9 23.10.2017 05:00 0 99,93 6,79
10 23.10.2017 04:30 0 99,93 6,89
11 23.10.2017 04:00 0 99,93 6,96
12 23.10.2017 03:30 0,6 99,93 6,91
13 23.10.2017 03:00 0,8 99,93 6,98
14 23.10.2017 02:30 0,6 99,93 7,01
15 23.10.2017 02:00 0,6 99,93 7,06
16 23.10.2017 01:30 0,2 99,93 7,03
17 23.10.2017 01:00 0 99,93 7,08
18 23.10.2017 00:30 0,2 99,93 7,11
19 23.10.2017 00:00 0,4 99,93 7,2
20 22.10.2017 23:30 0,6 99,93 7,35
21 22.10.2017 23:00 0,4 99,93 7,42
22 22.10.2017 22:30 0,4 99,93 7,52
23 22.10.2017 22:00 1 99,93 7,77
24 22.10.2017 21:30 0,8 99,93 7,81
25 22.10.2017 21:00 1,2 99,93 8,11
26 22.10.2017 20:30 1,2 99,93 8,4
27 22.10.2017 20:00 2,2 99,93 8,52
28 22.10.2017 19:30 2,4 99,93 8,72
29 22.10.2017 19:00 1,6 99,93 8,69
30 22.10.2017 18:30 1,2 99,93 8,64
31 22.10.2017 18:00 0,8 99,93 8,74
32 22.10.2017 17:30 1,2 99,93 8,86
33 22.10.2017 17:00 1 99,93 8,91
34 22.10.2017 16:30 0,2 99,93 9,04
35 22.10.2017 16:00 0,4 99,93 9,52
36 22.10.2017 15:30 0,2 99,93 10,26
37 22.10.2017 15:00 1,4 99,93 10,43
38 22.10.2017 14:30 0,6 99,93 10,48
39 22.10.2017 14:00 0,6 99,93 10,57
40 22.10.2017 13:30 0,8 99,93 10,62
41 22.10.2017 13:00 0,8 99,93 10,7
42 22.10.2017 12:30 0,8 99,93 10,45
43 22.10.2017 12:00 2 99,93 10,04
© 2011 Ministrstvo za kmetijstvo, gozdarstvo in prehrano. Vse pravice pridržane.